Regional Weather Roundup
Issued by NWS Wakefield, VA

Home | Current Version | Previous Version | Text Only | Print | Product List | Glossary On
Versions: 1 2 3 4 5 6 7 8 9 10 11 12 13 14 15 16 17 18 19 20 21 22 23 24 25 26 27 28 29 30 31 32 33 34 35 36 37 38 39 40 41 42 43 44 45 46 47 48 49 50
000
ASUS41 KAKQ 300315
RWRAKQ

REGIONAL WEATHER ROUNDUP
NATIONAL WEATHER SERVICE WAKEFIELD VA
1100 PM EDT FRI APR 29 2016

Note: "fair" indicates few or no clouds below 12,000 feet with no
significant weather and/or obstructions to visibility. * = Denotes
station may not report precipitation (e.g., rain,snow,etc.),
thunder or fog.

VAZ042-051-052>054-056-300400-
NORTHERN VIRGINIA

CITY           SKY/WX    TMP DP  RH WIND       PRES   REMARKS
WASH NATIONAL  CLOUDY    53  50  89 NE8       30.10F
DULLES         CLOUDY    52  49  89 E3        30.09F
FORT BELVOIR   CLOUDY    54  50  87 CALM      30.10S
QUANTICO       CLOUDY    55  51  86 E7        30.11S
FREDERICKSBRG* CLOUDY    54  54 100 NE6       30.09S FOG
STAFFORD*      CLOUDY    53  50  90 NE7       30.14S
WARRENTON      CLOUDY    54  48  81 CALM      30.10R
CULPEPER*      CLOUDY    54  53  99 CALM      30.11S FOG
MANASSAS*      CLOUDY    54  54 100 E3        30.10S
LEESBURG*      CLOUDY    54  54 100 CALM      30.11S FOG
WINCHESTER     CLOUDY    52  50  93 CALM      30.10S FOG
FRONT ROYAL*   CLOUDY    52  50  93 N5        30.08S
LURAY*         CLOUDY    52  52 100 N6        30.08S
$$

VAZ048-049-060>072-079>083-300400-
CENTRAL AND SOUTH CENTRAL VIRGINIA

CITY           SKY/WX    TMP DP  RH WIND       PRES   REMARKS
RICHMOND       DRIZZLE   55  53  93 NE9       30.08R
CHESTERFIELD*  CLOUDY    57  45  62 NE8       30.09R
PETERSBURG*    CLOUDY    60  55  85 NE6       30.07R
HANOVER        CLOUDY    55  51  86 VRB3      30.10R
TAPPAHANNOCK*  CLOUDY    54  54 100 CALM      30.10R
QUINTON*       CLOUDY    54  54  98 NE7       30.08R FOG
CHARLOTTSVILLE CLOUDY    54  51  90 NE6       30.08R
GORDONSVILLE*  CLOUDY    53  53 100 NE5       30.09R FOG
ORANGE*        CLOUDY    54  54 100 NE3       30.11R FOG
LOUISA*        CLOUDY    57  55  94 NE3       30.07S FOG
BUMPASS*       CLOUDY    53  52  97 E5        30.09S
FARMVILLE*     CLOUDY    58  57  98 NE8       30.05R
CREWE*         CLOUDY    58  58 100 N3        30.05R
FORT PICKETT*  NOT AVBL
CHASE CITY*    MOCLDY    57  56  94 NE3       30.04R
CLARKSVILLE*   FAIR      59  59 100 E5        30.02S
SOUTH HILL*    CLOUDY    57  56  97 CALM      30.09S
LAWRENCEVILLE* CLOUDY    58  57  97 NE3       30.04R
EMPORIA*       CLOUDY    57  55  94 N5        30.06R
$$

VAZ088>098-300400-
SOUTHEAST VIRGINIA

CITY           SKY/WX    TMP DP  RH WIND       PRES   REMARKS
NORFOLK        CLOUDY    55  52  89 NE13      30.05R FOG
VIRGINIA BEACH DRZL/FOG  57  51  80 NE13      30.05R VSB 1
NORFOLK NAVAL  DRIZZLE   56  54  93 E9        30.07R FOG
WEST POINT*    CLOUDY    54  53  96 N3        30.09R
SALUDA*        CLOUDY    54  53  97 N7        30.07S
NEWPORT NEWS   CLOUDY    55  53  93 NE8       30.06R FOG
LANGLEY AFB    CLOUDY    55  54  94 NE9       30.05R
FORT EUSTIS    CLOUDY    56  55  99 N5        30.05R
WILLIAMSBURG*  CLOUDY    57  55  94 NE3       30.08R
HR EXEC AP*    CLOUDY    57  54  88 NE3       30.06F
FRANKLIN*      CLOUDY    57  54  88 E6        30.06R
US460-WAKEFLD  CLOUDY    59  54  83 VRB3      30.05R
$$

VAZ020-022-025-037-045-300400-
WEST CENTRAL AND SOUTHWEST VIRGINIA

CITY           SKY/WX    TMP DP  RH WIND       PRES   REMARKS
STAUNTON*      CLOUDY    56  54  92 N3        30.10R
WAYNESBORO*    CLOUDY    54  51  90 MISG      30.08R
HOT SPRINGS VA FAIR      58  47  65 N5        30.08R
LYNCHBURG      CLOUDY    56  53  90 NE10      30.07R
DANVILLE       FAIR      61  32  33 E7        30.02R
SOUTH BOSTON*  FAIR      58  57  96 NE3       30.03R
MARTINSVILLE   FAIR      62  58  86 N5        30.04R
ROANOKE        MOCLDY    60  57  89 SE8       30.06R
BLACKSBURG     FAIR      61  49  63 CALM      30.07S
DUBLIN*        FAIR      65  49  56 W3        30.06S
MARION*        FAIR      66  46  48 W8        30.09S
HILLSVILLE*    FAIR      65  50  58 W5        30.06R
RICHLANDS*     FAIR      64  30  27 NW6       30.09R
WISE*          FAIR      64  36  34 NW5       30.12R
ABINGDON*      FAIR      62  54  73 CALM      30.07R
$$

MDZ021>025-VAZ099-100-300400-
SOUTHERN MARYLAND AND THE DELMARVA PENINSULA

CITY           SKY/WX    TMP DP  RH WIND       PRES   REMARKS
PATUXENT RIVER CLOUDY    52  49  89 NE7       30.09S
BAY BRIDGE APT NOT AVBL
LEONARDTOWN    CLOUDY    50  48  93 NE5       30.11S
DOVER          CLOUDY    49  49 100 N6        30.10F
GEORGETOWN     CLOUDY    49  48  97 N5        30.11R
EASTON         CLOUDY   N/A N/A N/A E3        30.14  HAZE
CAMBRIDGE      CLOUDY    48  48 100 CALM      30.09F
SALISBURY      CLOUDY    50  49  96 N8        30.10R
OCEAN CITY     CLOUDY    50  49  96 N8        30.08R
WALLOPS ISLAND CLOUDY    51  50  96 N7        30.08S
ACCOMACK*      CLOUDY    50  41  71 NE8       30.06F
$$

NCZ012>017-030>032-300400-
NORTH CENTRAL AND EASTERN NORTH CAROLINA

CITY           SKY/WX    TMP DP  RH WIND       PRES   REMARKS
ROANOKE RAPIDS NOT AVBL
RALEIGH        PTCLDY    65  59  81 SE6       29.99S
ELIZABETH CITY CLOUDY    56  55  97 NE6       30.04S FOG
AHOSKIE*       CLOUDY    59  56  90 NE5       30.02F
EDENTON*       CLOUDY    60  59  94 E5        30.04S
CURRITUCK*     CLOUDY    56  55  99 N7        30.05S
KILL DEVIL HLS CLOUDY    55  54  95 N3        30.02S
MANTEO         NOT AVBL
CAPE HATTERAS  CLOUDY    59  56  89 NE8       30.03R
TARBORO*       FAIR      57  56  95 CALM      30.03R
GOLDSBORO      CLEAR     61  61 100 E3        29.98S
WASHINGTON     CLOUDY    60  57  91 E5        30.01S
GREENVILLE     PTCLDY    59  59 100 CALM      30.02S
NEW BERN       PTCLDY    61  57  87 CALM      30.01S
WILMINGTON     CLEAR     66  62  87 E6        30.01R
$$

VAZ048-300400-
ELSEWHERE

CITY           SKY/WX    TMP DP  RH WIND       PRES   REMARKS
HARRISBURG PA  DRIZZLE   48  45  89 E5        30.12R FOG
BALTIMORE      DRIZZLE   50  49  96 E7        30.11R FOG
ANNAPOLIS      CLOUDY    52  50  93 MISG      30.11S
ANDREWS AFB    CLOUDY    51  50  96 NE3       30.09S
PHILADELPHIA   CLOUDY    49  39  68 NE8       30.13S
HENDERSON NC   CLEAR     58  58 100 E3        30.02S
GREENSBORO     MOCLDY    70  55  59 S3        29.97S
ROCKY MOUNT    CLEAR     57  57 100 NE3       30.01S
$$

VAZ100-300400-
MARINE

STATION/POSITION TIME  TEMP    WIND        PRES    WAVE   SWELL
                       AIR SEA DIR/SP/G            HT/PER HT/PER
                 (UTC) (F)     (DEG/KT/KT) (MB)    (FT/S) (FT/S)
BRANDYWINE LGT   0200   49                 1019.1R
CAPE MAY NJ      0200   49 57              1018.9R
LEWES DE         0200   51 54              1019.0R
15NM E FENWICK I 0250   50 50              1018.0R   7/ 8
OCEAN-CITY-INLET 0200   50 54              1017.7R
WACHAPREAGUE VA  0200   52 59              1017.7R
THOMAS POINT MD  0300   52 57   90/  8/  9 1020.7F
GOOSES REEF MD   0300   53 57   80/ 10/ 12 1019.9F   1/ 2
COVE POINT MD    0200   51                 1019.7R
SOLOMONS ISLAND  0200   52 59                N/A
BISHOPS HEAD MD  0200   52 58              1018.1R
PINEY POINT MD   0200           40/  4/  4   N/A
POTOMAC MD       0300   53 59   50/ 10/ 12 1018.0R   0
CAMBRIDGE MD     0200   52 60              1018.5R
LEWISETTA VA     0200   54 60              1018.3R
RAPPAHANNOCK LGT 0200                      1018.6R
STINGRAY PT      0300   55 60   50/ 12/ 14 1018.5R   1/ 2
YORK RVR RNG VA  0200   57                 1017.1R
YORKTOWN VA      0200   56 63              1017.6R
JAMESTOWN VA     0300   55 67   30/  6/ 10   N/A     0
DOMINION TERM VA 0200   58                 1017.5R
KIPTOPEKE VA     0200      60                N/A
CHES BAY BRIDGE  0200   55 60              1017.1R
CAPE HENRY VA    0200   54                   N/A
CHESAPEAKE LGHT  0200   53      30/ 13/ 14 1017.9R
WILLOUBY STN VA  0200   57                 1018.3R
CAPE HENRY BUOY  0212      56                N/A     5/ 7
CAPE CHARLES BUO 0226      56                N/A     4/ 8   3/ 8
OFFSHORE WE BUOY 0221      54                N/A     5/ 7   3/ 7
64NM E OF VA BCH 0250   53 53  360/ 14/ 16 1016.1S   5/ 9   3/ 9
DUCK PIER NC     0200   55 67              1016.5R
44100 DUCK FRF   0224      58                N/A     4/ 6
44056 DUCK FRF   0211      58                N/A     4/ 7
OREGON INLET NC  0200   55 63              1016.9R
HATTERAS NC      0200   61 71              1016.2R
DIAMOND SHLS NC  0250   58 75   10/ 17/ 21 1016.4R   4/ 5   2/ 8
CAPE LOOKOUT NC  0300   66      60/ 10/ 11 1015.6F
$$



USA.gov is the U.S. government's official web portal to all federal, state and local government web resources and services.